Weather History for Warsaw, IN

Change the Weather History Date:

Wednesday, February 12, 2014

  Actual Average Record
Temperature  
Mean Temperature 4 °F -  
Max Temperature 23 °F 33 °F 60 °F (1984)
Min Temperature -14 °F 14 °F -14 °F (2014)
Degree Days  
Heating Degree Days 60    
Moisture  
Dew Point -2 °F    
Average Humidity 71    
Maximum Humidity 92    
Minimum Humidity 43    
Precipitation  
Precipitation 0.00 in - - ()
Sea Level Pressure  
Sea Level Pressure 30.23 in    
Wind  
Wind Speed 1 mph (SE)    
Max Wind Speed 8 mph    
Max Gust Speed -    
Visibility 9 miles    
Events Snow    
Averages and records for this station are not official NWS values.
T = Trace of Precipitation, MM = Missing Value Source: NWS Daily Summary

Daily Weather History Graph

Daily Weather History Graph

Search for Another Location

Airport:

Trip Planner

Search our weather history database for the weather conditions in past years. The results will help you decide how hot, cold, wet, or windy it might be!

Date:

Astronomy

Feb. 12, 2014 Rise Set
Actual Time 7:42 AM EST 6:13 PM EST
Civil Twilight 7:13 AM EST 6:42 PM EST
Nautical Twilight 6:41 AM EST 7:14 PM EST
Astronomical Twilight 6:09 AM EST 7:46 PM EST
Moon 4:26 PM EST (2/12) 5:59 AM EST (2/12)
Length of Visible Light 11h 28m
Length of Day
10h 31m
Waxing Gibbous, 95% of the Moon is Illuminated
Feb 12
Waxing Gibbous
Feb 14
Full
Feb 22
Last Quarter
Mar 1
New
Mar 8
First Quarter

Hourly Weather History & Observations

Time (EST) Temp. Windchill Dew Point Humidity Pressure Visibility Wind Dir Wind Speed Gust Speed Precip Events Conditions
12:15 AM -7.6 °F - -13.0 °F 77% 30.42 in 10.0 mi Calm Calm - N/A   Clear
12:35 AM -7.6 °F - -13.0 °F 77% 30.42 in 7.0 mi Calm Calm - N/A   Clear
12:55 AM -7.6 °F -16.5 °F -13.0 °F 77% 30.40 in 7.0 mi ESE 3.5 mph - N/A   Clear
1:15 AM -5.8 °F - -11.2 °F 77% 30.40 in 10.0 mi Calm Calm - N/A   Clear
1:35 AM -7.6 °F - -11.2 °F 84% 30.38 in 7.0 mi Calm Calm - N/A   Clear
1:55 AM -9.4 °F - -13.0 °F 84% 30.37 in 7.0 mi Calm Calm - N/A   Clear
2:15 AM -9.4 °F - -13.0 °F 84% 30.36 in 7.0 mi Calm Calm - N/A   Clear
2:35 AM -13.0 °F - -16.6 °F 84% 30.36 in 7.0 mi Calm Calm - N/A   Clear
2:55 AM -14.8 °F - -18.4 °F 84% 30.36 in 10.0 mi Calm Calm - N/A   Clear
3:15 AM -13.0 °F - -16.6 °F 84% 30.35 in 7.0 mi Calm Calm - N/A   Clear
3:35 AM -5.8 °F -14.5 °F -9.4 °F 84% 30.36 in 7.0 mi ESE 3.5 mph - N/A   Clear
3:55 AM -9.4 °F - -14.8 °F 77% 30.36 in 10.0 mi Calm Calm - N/A   Clear
4:15 AM -5.8 °F - -9.4 °F 84% 30.35 in 10.0 mi Calm Calm - N/A   Clear
4:35 AM -5.8 °F - -9.4 °F 84% 30.36 in 7.0 mi Calm Calm - N/A Snow Light Snow
4:55 AM -7.6 °F - -13.0 °F 77% 30.35 in 10.0 mi Calm Calm - N/A   Clear
5:15 AM -7.6 °F - -11.2 °F 84% 30.35 in 10.0 mi Calm Calm - N/A   Clear
5:35 AM -5.8 °F -14.5 °F -9.4 °F 84% 30.34 in 10.0 mi ESE 3.5 mph - N/A   Clear
5:55 AM -5.8 °F -14.5 °F -9.4 °F 84% 30.33 in 10.0 mi ESE 3.5 mph - N/A   Clear
6:15 AM -5.8 °F - -9.4 °F 84% 30.32 in 10.0 mi Calm Calm - N/A   Clear
6:35 AM -7.6 °F - -11.2 °F 84% 30.32 in 10.0 mi Calm Calm - N/A   Clear
6:55 AM -7.6 °F - -13.0 °F 77% 30.31 in 10.0 mi Calm Calm - N/A   Clear
7:15 AM -11.2 °F - -16.6 °F 77% 30.31 in 10.0 mi Calm Calm - N/A   Clear
7:35 AM -13.0 °F - -18.4 °F 77% 30.30 in 7.0 mi Calm Calm - N/A   Clear
7:55 AM -11.2 °F - -16.6 °F 77% 30.30 in 7.0 mi Calm Calm - N/A   Clear
8:15 AM -9.4 °F - -13.0 °F 84% 30.30 in 7.0 mi Calm Calm - N/A   Clear
8:35 AM -7.6 °F - -11.2 °F 84% 30.29 in 7.0 mi Calm Calm - N/A   Clear
8:55 AM -5.8 °F - -9.4 °F 84% 30.29 in 7.0 mi Calm Calm - N/A   Clear
9:15 AM -4.0 °F - -7.6 °F 85% 30.30 in 7.0 mi Calm Calm - N/A   Clear
9:35 AM -0.4 °F -8.3 °F -4.0 °F 85% 30.30 in 10.0 mi ESE 3.5 mph - N/A   Clear
9:55 AM 1.4 °F - -0.4 °F 92% 30.30 in 10.0 mi Calm Calm - N/A   Clear
10:15 AM 3.2 °F - 1.4 °F 92% 30.30 in 7.0 mi Calm Calm - N/A   Clear
10:35 AM 8.6 °F - 5.0 °F 85% 30.29 in 10.0 mi Calm Calm - N/A   Clear
10:55 AM 10.4 °F - 6.8 °F 85% 30.28 in 10.0 mi Calm Calm - N/A   Clear
11:15 AM 12.2 °F 6.1 °F 8.6 °F 85% 30.28 in 10.0 mi ESE 3.5 mph - N/A   Clear
11:35 AM 12.2 °F - 10.4 °F 92% 30.27 in 10.0 mi Calm Calm - N/A   Clear
11:55 AM 14.0 °F 6.5 °F 10.4 °F 86% 30.27 in 10.0 mi SE 4.6 mph - N/A   Clear
12:15 PM 15.8 °F 10.2 °F 12.2 °F 86% 30.25 in 10.0 mi SSE 3.5 mph - N/A   Clear
12:35 PM 19.4 °F 12.8 °F 6.8 °F 58% 30.24 in 10.0 mi SE 4.6 mph - N/A   Clear
12:55 PM 19.4 °F 11.5 °F 6.8 °F 58% 30.22 in 10.0 mi ESE 5.8 mph - N/A   Clear
1:15 PM 19.4 °F 10.4 °F 8.6 °F 63% 30.20 in 10.0 mi ESE 6.9 mph - N/A   Clear
1:35 PM 21.2 °F 16.4 °F 8.6 °F 58% 30.19 in 10.0 mi SSE 3.5 mph - N/A   Clear
1:55 PM 21.2 °F 13.6 °F 8.6 °F 58% 30.17 in 10.0 mi ESE 5.8 mph - N/A   Clear
2:15 PM 21.2 °F 16.4 °F 6.8 °F 54% 30.16 in 10.0 mi South 3.5 mph - N/A   Clear
2:35 PM 23.0 °F 18.4 °F 6.8 °F 50% 30.15 in 10.0 mi SSE 3.5 mph - N/A   Clear
2:55 PM 23.0 °F 18.4 °F 5.0 °F 46% 30.14 in 10.0 mi SE 3.5 mph - N/A   Clear
3:15 PM 23.0 °F 17.0 °F 5.0 °F 46% 30.13 in 10.0 mi SE 4.6 mph - N/A   Clear
3:35 PM 23.0 °F - 5.0 °F 46% 30.14 in 10.0 mi Calm Calm - N/A   Clear
3:55 PM 23.0 °F 18.4 °F 5.0 °F 46% 30.13 in 10.0 mi ESE 3.5 mph - N/A   Clear
4:15 PM 23.0 °F 14.7 °F 5.0 °F 46% 30.12 in 10.0 mi ESE 6.9 mph - N/A   Clear
4:35 PM 23.0 °F 13.9 °F 3.2 °F 43% 30.12 in 10.0 mi SE 8.1 mph - N/A   Scattered Clouds
4:55 PM 23.0 °F 18.4 °F 3.2 °F 43% 30.12 in 10.0 mi SSE 3.5 mph - N/A   Mostly Cloudy
5:15 PM 23.0 °F 15.8 °F 5.0 °F 46% 30.11 in 10.0 mi SE 5.8 mph - N/A   Overcast
5:35 PM 23.0 °F 18.4 °F 3.2 °F 43% 30.10 in 10.0 mi SE 3.5 mph - N/A   Overcast
5:55 PM 21.2 °F 14.9 °F 5.0 °F 50% 30.09 in 10.0 mi ESE 4.6 mph - N/A   Overcast
6:15 PM 21.2 °F 16.4 °F 5.0 °F 50% 30.09 in 10.0 mi ESE 3.5 mph - N/A   Overcast
6:35 PM 21.2 °F - 5.0 °F 50% 30.09 in 10.0 mi Calm Calm - N/A   Overcast
6:55 PM 21.2 °F - 5.0 °F 50% 30.10 in 10.0 mi Calm Calm - N/A   Overcast
7:15 PM 19.4 °F - 5.0 °F 54% 30.10 in 10.0 mi Calm Calm - N/A   Overcast
7:35 PM 19.4 °F - 3.2 °F 49% 30.10 in 10.0 mi Calm Calm - N/A   Overcast
7:55 PM 19.4 °F - 5.0 °F 54% 30.10 in 10.0 mi Calm Calm - N/A   Mostly Cloudy
8:15 PM 14.0 °F - 3.2 °F 62% 30.10 in 10.0 mi Calm Calm - N/A   Clear
8:35 PM 14.0 °F - 3.2 °F 62% 30.10 in 10.0 mi Calm Calm - N/A   Clear
8:55 PM 14.0 °F - 3.2 °F 62% 30.10 in 10.0 mi Calm Calm - N/A   Clear
9:15 PM 12.2 °F - 3.2 °F 67% 30.10 in 10.0 mi Calm Calm - N/A   Clear
9:35 PM 10.4 °F - 3.2 °F 73% 30.10 in 10.0 mi Calm Calm - N/A   Clear
9:55 PM 10.4 °F - 3.2 °F 73% 30.09 in 10.0 mi Calm Calm - N/A   Clear
10:15 PM 10.4 °F - 5.0 °F 79% 30.08 in 10.0 mi Calm Calm - N/A   Clear
10:35 PM 8.6 °F - 3.2 °F 79% 30.08 in 10.0 mi Calm Calm - N/A   Clear
10:55 PM 8.6 °F 2.0 °F 3.2 °F 79% 30.07 in 10.0 mi ESE 3.5 mph - N/A   Clear
11:15 PM 8.6 °F 0.1 °F 3.2 °F 79% 30.06 in 10.0 mi SE 4.6 mph - N/A   Clear
11:35 PM 10.4 °F - 3.2 °F 73% 30.05 in 10.0 mi Calm Calm - N/A   Clear
11:55 PM 10.4 °F 4.0 °F 3.2 °F 73% 30.04 in 10.0 mi ESE 3.5 mph - N/A   Clear